[[{"header":{"parameterUnit":"m.s-1","parameterCategory":2,"la1":30.2991,"la2":30.254,"lo1":-89.0895,"lo2":-89.0444,"dy":0.0017,"dx":0.0017,"nx":28,"ny":28,"refTime":"2024-04-15T09:00:00:Z","depth":"0","parameterNumber":2,"parameterNumberName":"U-component_of_CURRENTS"},"data":[0,0,0,0,0,0,0,0,0,0,0,0,0,0,0,0,0,0,0,0,0,0,0,0,0,0,0,0,0,0,0,0,0,0,0,0,0,0,0,0,0,0,0,0,0,0,0,0,0,0,0,0,0,0,0,0,0,0,0.2506,0.2506,0,0.2481,0.248,0.2479,0.2472,0.2472,0.2473,0.2473,0.2455,0.2454,0.2453,0,0,0,0,0,0,0,0,0,0,0,0,0,0.2535,0.2534,0.2506,0.2506,0.2506,0.2481,0.248,0.2479,0.2471,0.2472,0.2473,0.2473,0.2456,0.2454,0.2453,0,0,0,0,0,0,0,0,0,0,0,0,0,0.2513,0.2534,0.2506,0.2502,0.2502,0.2481,0.248,0.2479,0.2471,0.2472,0.2473,0.2474,0.2456,0.2454,0.2453,0.2428,0,0,0.2449,0.2448,0,0,0,0,0,0,0,0,0.2514,0.2512,0.2503,0.2503,0.2502,0.2484,0.2484,0.2464,0.2471,0.2478,0.2473,0.2474,0.2468,0.2465,0.2453,0.2428,0.2427,0.2449,0.2448,0.2447,0.2447,0,0,0,0,0,0,0,0.2516,0.2513,0.2491,0.2503,0.2503,0.2498,0.2496,0.248,0.2466,0.2478,0.2478,0.2482,0.2467,0.2454,0.2452,0.2427,0.2449,0.2447,0.2446,0.2446,0.2457,0.2459,0,0,0,0,0,0,0.2527,0.2514,0.2492,0.2491,0.2515,0.2497,0.2494,0.2485,0.2466,0.2465,0.2482,0.2482,0.2456,0.2454,0.2452,0.2478,0.2447,0.2446,0.2445,0.2456,0.2458,0.2459,0,0,0,0,0,0,0.2528,0.2525,0.2493,0.2506,0.2503,0.2497,0.2486,0.2485,0.248,0.2469,0.2468,0.2481,0.2457,0.2454,0.2448,0.2476,0.2445,0.2444,0.2455,0.2457,0.2458,0.2496,0,0,0,0,0,0,0.2528,0.2525,0.2524,0.2507,0.2503,0.2486,0.2486,0.2484,0.2483,0.2483,0.2468,0.2466,0.2457,0.245,0.2447,0.2473,0.2443,0.2453,0.2456,0.2458,0.2493,0.2499,0.2503,0,0,0,0,0,0.2529,0.2525,0.2523,0.2521,0.25,0.2487,0.2483,0.2479,0.2482,0.2477,0.2473,0.2467,0.2463,0.2449,0.2445,0.2472,0.2452,0.2455,0.2458,0.2491,0.2498,0.2503,0,0,0,0,0,0,0.2534,0.2524,0.2522,0.2513,0.2505,0.2487,0.2486,0.2482,0.2472,0.2478,0.2465,0.2463,0.2475,0.2464,0.245,0.2485,0.2464,0.2465,0.249,0.2497,0.2502,0.2539,0.2441,0,0,0,0,0,0.2535,0.2532,0.2519,0.2514,0.2511,0.2498,0.2494,0.2492,0.2483,0.2479,0.2467,0.2468,0.2479,0.248,0.2478,0.2482,0.2514,0.2503,0.2508,0.2513,0.2542,0.2612,0.2627,0.2468,0.2468,0.2468,0,0,0.2534,0.2532,0.2528,0.2516,0.2508,0.2502,0.2496,0.2494,0.2501,0.2479,0.2479,0.2479,0.2484,0.2498,0.2504,0.2493,0.2572,0.2516,0.252,0.2548,0.2616,0.2632,0.2646,0.2469,0.2469,0.2469,0,0,0.2534,0.2528,0.2526,0.252,0.2519,0.2512,0.2514,0.2498,0.2505,0.2498,0.2505,0.2528,0.2506,0.2539,0.255,0.2583,0.2596,0.2576,0.2631,0.2697,0.2711,0.2724,0.2775,0.2792,0.2579,0.2579,0.2579,0,0.2535,0.2525,0.2523,0.2521,0.2521,0.2518,0.2514,0.2521,0.2507,0.253,0.2505,0.2542,0.2538,0.2605,0.2619,0.2599,0.2629,0.2602,0.2706,0.2719,0.2732,0.2781,0.28,0.2581,0.2581,0.2581,0.2581,0,0.2533,0.2525,0.2523,0.2521,0.2523,0.2517,0.2529,0.2541,0.2543,0.2556,0.2607,0.2609,0.2643,0.2646,0.2638,0.2734,0.2724,0.2702,0.2691,0.275,0.2798,0.2816,0.2584,0.2584,0.2583,0.2582,0,0,0.2519,0.252,0.2517,0.252,0.2521,0.2523,0.2553,0.2583,0.2629,0.263,0.2695,0.2721,0.274,0.2757,0.2765,0.2823,0.2926,0.2803,0.2805,0.2857,0.3069,0.2948,0.2957,0.2918,0.2922,0.2925,0.3062,0,0.251,0.2509,0.2514,0.2515,0.2511,0.2534,0.2566,0.2608,0.2641,0.2703,0.2758,0.281,0.2779,0.2809,0.2865,0.2918,0.2979,0.2891,0.3002,0.3006,0.2895,0.2976,0.2776,0.2872,0.3081,0.3084,0.3086,0,0.2497,0.2499,0.2497,0.2522,0.2526,0.2536,0.2606,0.2639,0.2742,0.2778,0.2854,0.2891,0.2998,0.2952,0.309,0.3032,0.3064,0.3094,0.3099,0.2994,0.2921,0.2849,0.2898,0.2827,0.3115,0.3112,0.311,0,0.2485,0.2487,0.2488,0.2489,0.252,0.2546,0.2576,0.2663,0.2723,0.2845,0.2904,0.3012,0.3074,0.315,0.3193,0.3159,0.3333,0.3289,0.3216,0.3207,0.3065,0.3037,0.3063,0.34,0.3399,0.3399,0.3399,0,0.2466,0.2466,0.2483,0.2483,0.2511,0.2544,0.2611,0.2665,0.2778,0.2863,0.2946,0.303,0.3127,0.3218,0.3254,0.329,0.3381,0.3259,0.3248,0.3067,0.3039,0.2991,0.2968,0.3404,0.3403,0.3402,0.3401,0,0.2445,0.2451,0.2457,0.2489,0.2501,0.2529,0.2617,0.2679,0.2781,0.2901,0.2949,0.3079,0.3188,0.3268,0.3393,0.3348,0.3302,0.3394,0.3164,0.3122,0.2942,0.2927,0.2866,0.279,0.3348,0.3346,0.3344,0,0.243,0.243,0.2458,0.2473,0.2483,0.2533,0.2576,0.267,0.2742,0.2919,0.2976,0.3118,0.3184,0.3308,0.3281,0.3326,0.3256,0.3144,0.3037,0.2932,0.2911,0.281,0.2745,0.2873,0.2868,0.2863,0.286,0,0.2416,0.2431,0.2448,0.2464,0.2493,0.2531,0.2597,0.2649,0.2774,0.2868,0.2989,0.3059,0.314,0.307,0.3087,0.3083,0.2955,0.3051,0.3018,0.2613,0.2434,0.2352,0.2785,0.282,0.2824,0.2827,0.2829,0.2831,0.2418,0.2425,0.2448,0.2454,0.2488,0.2508,0.2516,0.2594,0.2673,0.2753,0.2895,0.29,0.2878,0.2859,0.2833,0.2639,0.2701,0.2527,0.2546,0.2474,0.2306,0.2639,0.2601,0.2603,0.2605,0.2607,0.2609,0,0.2398,0.2411,0.2435,0.2435,0.2435,0.2464,0.251,0.2491,0.2518,0.2589,0.2651,0.2583,0.2481,0.2442,0.2273,0.2144,0.2052,0.2098,0.1934,0.1919,0.2284,0.2164,0.1935,0.1935,0.1935,0.1936,0.1936,0.1936,0.2397,0.2395,0.2392,0.2364,0.2366,0.232,0.2315,0.2289,0.2295,0.2229,0.2154,0.2167,0.2178,0.2076,0.1889,0.1829,0.1712,0.1583,0.1681,0.1953,0.1995,0.2034,0.1917,0.164,0.164,0.1178,0.1175,0.1172]},{"header":{"parameterUnit":"m.s-1","parameterCategory":2,"la1":30.2991,"la2":30.254,"lo1":-89.0895,"lo2":-89.0444,"dy":0.0017,"dx":0.0017,"nx":28,"ny":28,"refTime":"2024-04-15T09:00:00:Z","depth":"0","parameterNumber":3,"parameterNumberName":"V-component_of_CURRENTS"},"data":[0,0,0,0,0,0,0,0,0,0,0,0,0,0,0,0,0,0,0,0,0,0,0,0,0,0,0,0,0,0,0,0,0,0,0,0,0,0,0,0,0,0,0,0,0,0,0,0,0,0,0,0,0,0,0,0,0,0,0.0301,0.0301,0,0.0269,0.0268,0.0267,0.0239,0.0239,0.0239,0.0239,0.0184,0.0182,0.0181,0,0,0,0,0,0,0,0,0,0,0,0,0,0.0299,0.0299,0.0301,0.0301,0.0301,0.0269,0.0268,0.0267,0.0239,0.0239,0.0239,0.0239,0.0184,0.0182,0.0181,0,0,0,0,0,0,0,0,0,0,0,0,0,0.0283,0.0299,0.0301,0.0285,0.0284,0.0269,0.0268,0.0267,0.0239,0.0239,0.0239,0.0239,0.0185,0.0183,0.018,0.0168,0,0,0.0174,0.0173,0,0,0,0,0,0,0,0,0.0284,0.0283,0.0287,0.0286,0.0284,0.0261,0.0247,0.0234,0.0239,0.0252,0.0239,0.0239,0.0209,0.0205,0.0195,0.0165,0.0163,0.0174,0.0172,0.0171,0.0171,0,0,0,0,0,0,0,0.0285,0.0284,0.0285,0.0287,0.0286,0.0266,0.0264,0.0244,0.0228,0.0251,0.025,0.0252,0.0208,0.0197,0.0193,0.0162,0.0174,0.0172,0.017,0.017,0.0122,0.0122,0,0,0,0,0,0,0.0298,0.0285,0.0286,0.0284,0.0288,0.0267,0.0264,0.0266,0.0229,0.0225,0.0252,0.025,0.0201,0.0196,0.0191,0.0188,0.0171,0.0169,0.0168,0.0122,0.0122,0.0122,0,0,0,0,0,0,0.0298,0.0299,0.0287,0.0287,0.0284,0.0268,0.0269,0.0265,0.0259,0.023,0.0225,0.0251,0.02,0.0194,0.0178,0.0185,0.0168,0.0166,0.0122,0.0122,0.0122,0.0173,0,0,0,0,0,0,0.0298,0.0299,0.0302,0.0288,0.0285,0.0284,0.0269,0.0265,0.0261,0.0259,0.0228,0.0222,0.02,0.0182,0.0176,0.0182,0.0165,0.0122,0.0122,0.0122,0.0171,0.0175,0.0178,0,0,0,0,0,0.0298,0.031,0.0302,0.0302,0.0291,0.0285,0.0281,0.0267,0.0262,0.026,0.0239,0.0223,0.0178,0.018,0.0173,0.0179,0.0122,0.0122,0.0122,0.017,0.0174,0.0178,0,0,0,0,0,0,0.0312,0.0308,0.0299,0.0309,0.0299,0.0281,0.0283,0.0272,0.0254,0.0254,0.0224,0.0217,0.0204,0.0184,0.0187,0.0164,0.0147,0.0146,0.0185,0.0189,0.0192,0.0216,0.0163,0,0,0,0,0,0.0317,0.0324,0.0313,0.032,0.0317,0.03,0.0296,0.0286,0.0271,0.0263,0.0242,0.0218,0.0198,0.0189,0.0166,0.0156,0.0151,0.0154,0.0157,0.016,0.0174,0.017,0.0175,0.0122,0.0122,0.0122,0,0,0.0324,0.0324,0.0326,0.0323,0.0313,0.0315,0.0296,0.0296,0.0298,0.026,0.0254,0.0228,0.0197,0.0185,0.0177,0.017,0.0173,0.016,0.0163,0.0176,0.0171,0.0177,0.0181,0.0122,0.0122,0.0122,0,0,0.0345,0.0341,0.0352,0.0348,0.0343,0.0331,0.0335,0.0319,0.0312,0.0301,0.0276,0.0259,0.0225,0.0209,0.0195,0.0203,0.0189,0.0191,0.023,0.0226,0.0231,0.0235,0.0242,0.0246,0.0195,0.0195,0.0195,0,0.035,0.0366,0.0354,0.0364,0.0366,0.0343,0.0354,0.0343,0.0323,0.0327,0.0305,0.027,0.0238,0.0236,0.0234,0.0212,0.0212,0.0219,0.0232,0.0236,0.024,0.0245,0.025,0.0197,0.0197,0.0197,0.0197,0,0.038,0.0389,0.0398,0.0401,0.04,0.0407,0.0393,0.0391,0.0378,0.0369,0.0362,0.0319,0.0303,0.0284,0.0259,0.0268,0.0262,0.0237,0.0228,0.0248,0.0253,0.0256,0.0201,0.02,0.0199,0.0199,0,0,0.0399,0.0414,0.0418,0.043,0.0422,0.043,0.0433,0.0437,0.0459,0.0425,0.0452,0.0397,0.0381,0.0365,0.0331,0.0324,0.0338,0.0296,0.0294,0.0313,0.0344,0.0326,0.0328,0.0318,0.0319,0.0319,0.0339,0,0.0424,0.0458,0.0455,0.0483,0.0498,0.0484,0.0497,0.0498,0.0492,0.0511,0.0475,0.0482,0.041,0.0414,0.0389,0.0359,0.0349,0.0336,0.0312,0.0312,0.0302,0.0331,0.0339,0.0356,0.0343,0.0343,0.0344,0,0.0454,0.0475,0.0512,0.054,0.0547,0.0561,0.059,0.0599,0.0612,0.0612,0.0603,0.0581,0.0567,0.0506,0.0457,0.0454,0.0403,0.0371,0.037,0.0341,0.03,0.033,0.0363,0.028,0.0349,0.0348,0.0348,0,0.0487,0.0516,0.0552,0.0559,0.0584,0.0606,0.0621,0.0637,0.0672,0.0691,0.0729,0.0685,0.0691,0.0619,0.0532,0.0503,0.049,0.0437,0.0373,0.0372,0.0367,0.0364,0.0327,0.0405,0.0405,0.0405,0.0405,0,0.0519,0.0548,0.0577,0.0599,0.0657,0.0655,0.0722,0.073,0.0774,0.0847,0.0792,0.0846,0.0721,0.0692,0.0589,0.0504,0.0528,0.0397,0.0379,0.0384,0.0382,0.03,0.0245,0.0405,0.0405,0.0405,0.0405,0,0.0551,0.0566,0.0615,0.0656,0.0677,0.0722,0.0797,0.0851,0.0879,0.0977,0.0998,0.0983,0.0944,0.0818,0.0718,0.0593,0.0457,0.0467,0.0486,0.0469,0.0308,0.0256,0.0199,0.0158,0.0399,0.0399,0.0399,0,0.0571,0.0602,0.0666,0.071,0.0735,0.0804,0.0864,0.0904,0.0973,0.1075,0.1139,0.113,0.1151,0.0989,0.0772,0.0599,0.0483,0.0471,0.0397,0.0317,0.0246,0.0201,0.0167,0.0416,0.0416,0.0416,0.0416,0,0.0618,0.0643,0.069,0.0778,0.0848,0.0926,0.1015,0.1088,0.1163,0.1263,0.1381,0.1414,0.1255,0.108,0.0815,0.0679,0.041,0.0462,0.0377,0.0261,0.0213,0.016,0.0389,0.0415,0.0415,0.0415,0.0415,0.0415,0.066,0.0704,0.0773,0.0854,0.0937,0.1041,0.1119,0.1237,0.1376,0.1535,0.1551,0.1618,0.1344,0.0986,0.0797,0.0428,0.0411,0.03,0.0248,0.0214,0.0158,0.039,0.0389,0.0389,0.0389,0.0389,0.0389,0,0.0705,0.0759,0.0844,0.0942,0.1035,0.1069,0.1217,0.1313,0.1494,0.1648,0.1757,0.1646,0.1329,0.0976,0.0479,0.0253,0.0165,0.0129,0.0069,0.0046,0.0259,0.0242,0.0212,0.0212,0.0212,0.0213,0.0213,0.0213,0.0735,0.0814,0.0853,0.1003,0.1079,0.1209,0.1295,0.1456,0.1585,0.1772,0.181,0.1811,0.1524,0.0697,0.0179,0.0069,-0.008,-0.0118,-0.019,-0.0047,-0.0035,-0.0024,-0.0052,-0.0143,-0.0143,-0.0376,-0.0378,-0.038]}],[{"header":{"parameterUnit":"m.s-1","parameterCategory":2,"la1":30.2991,"la2":30.254,"lo1":-89.0895,"lo2":-89.0444,"dy":0.0017,"dx":0.0017,"nx":28,"ny":28,"refTime":"2024-04-15T09:00:00:Z","depth":"2","parameterNumber":2,"parameterNumberName":"U-component_of_CURRENTS"},"data":[0,0,0,0,0,0,0,0,0,0,0,0,0,0,0,0,0,0,0,0,0,0,0,0,0,0,0,0,0,0,0,0,0,0,0,0,0,0,0,0,0,0,0,0,0,0,0,0,0,0,0,0,0,0,0,0,0,0,0.198,0.198,0,0.1979,0.1979,0.1979,0.1977,0.1977,0.1977,0.1976,0.199,0.1991,0.1991,0,0,0,0,0,0,0,0,0,0,0,0,0,0.1998,0.1998,0.198,0.198,0.198,0.1979,0.1979,0.1979,0.1977,0.1977,0.1977,0.1976,0.199,0.1991,0.1991,0,0,0,0,0,0,0,0,0,0,0,0,0,0.1995,0.1998,0.198,0.1977,0.1976,0.1979,0.1979,0.1979,0.1977,0.1977,0.1976,0.1976,0.199,0.199,0.1991,0.2005,0,0,0.1994,0.1995,0,0,0,0,0,0,0,0,0.1995,0.1995,0.1978,0.1977,0.1976,0.1976,0.199,0.1988,0.1977,0.198,0.1976,0.1976,0.1985,0.1986,0.1991,0.2006,0.2007,0.1994,0.1995,0.1995,0.1996,0,0,0,0,0,0,0,0.1996,0.1995,0.1982,0.1977,0.1976,0.1981,0.198,0.199,0.1987,0.1979,0.1979,0.1974,0.1985,0.199,0.1991,0.2007,0.1994,0.1995,0.1996,0.1996,0.2049,0.205,0,0,0,0,0,0,0.199,0.1995,0.1982,0.1982,0.1982,0.1981,0.198,0.1978,0.1987,0.1986,0.1975,0.1974,0.1988,0.199,0.1991,0.2035,0.1995,0.1996,0.1997,0.2048,0.2049,0.205,0,0,0,0,0,0,0.1991,0.1989,0.1982,0.1986,0.1985,0.198,0.1979,0.1978,0.1995,0.1982,0.1983,0.1993,0.1988,0.199,0.2001,0.2035,0.1997,0.1997,0.2047,0.2049,0.205,0.2106,0,0,0,0,0,0,0.1991,0.199,0.1993,0.1986,0.1985,0.1996,0.1979,0.1979,0.1991,0.1991,0.1998,0.1998,0.1988,0.2,0.2002,0.2035,0.1998,0.2046,0.2048,0.2049,0.2103,0.2109,0.2114,0,0,0,0,0,0.1992,0.1993,0.1993,0.1991,0.1987,0.1996,0.1997,0.1993,0.1993,0.2007,0.2001,0.1998,0.2012,0.2001,0.2004,0.2038,0.2045,0.2047,0.2049,0.2101,0.2108,0.2114,0,0,0,0,0,0,0.1997,0.1993,0.1992,0.1991,0.1999,0.1995,0.2004,0.2006,0.2015,0.2012,0.2006,0.2006,0.2034,0.2024,0.2012,0.2056,0.203,0.2033,0.2069,0.2076,0.2081,0.2106,0.1999,0,0,0,0,0,0.2001,0.2003,0.2004,0.2004,0.2012,0.2015,0.2019,0.2017,0.2019,0.2023,0.2026,0.2029,0.2043,0.2048,0.2055,0.2076,0.2094,0.21,0.2106,0.2111,0.2132,0.2192,0.2206,0.2056,0.2056,0.2056,0,0,0.1999,0.1999,0.1997,0.2006,0.2013,0.2024,0.2018,0.2028,0.2039,0.2023,0.2044,0.2053,0.2053,0.2078,0.2089,0.2073,0.2157,0.2113,0.2117,0.2137,0.2196,0.2211,0.2224,0.2058,0.2058,0.2057,0,0,0.1999,0.2004,0.201,0.2021,0.2031,0.2036,0.2045,0.2053,0.2065,0.2077,0.2078,0.2106,0.211,0.213,0.2136,0.2179,0.2189,0.218,0.2227,0.2285,0.2299,0.2311,0.2333,0.2347,0.2178,0.2178,0.2178,0,0.1998,0.2003,0.2015,0.2027,0.2034,0.2046,0.2058,0.2074,0.2083,0.2106,0.2086,0.2138,0.2138,0.2195,0.2207,0.2196,0.2219,0.2201,0.2295,0.2308,0.2319,0.234,0.2354,0.2181,0.218,0.218,0.218,0,0.2,0.2011,0.2019,0.2037,0.2053,0.2063,0.2084,0.2107,0.2118,0.2139,0.2197,0.2203,0.2239,0.2245,0.2237,0.2327,0.2312,0.23,0.2283,0.2338,0.2355,0.2369,0.2185,0.2184,0.2183,0.2182,0,0,0.1984,0.2013,0.2018,0.203,0.2057,0.2069,0.2103,0.2147,0.2186,0.2208,0.2272,0.2303,0.2331,0.2343,0.2353,0.2402,0.2492,0.2391,0.2393,0.2422,0.2608,0.2496,0.25,0.2505,0.2508,0.251,0.2581,0,0.1985,0.2002,0.2021,0.2045,0.2059,0.2089,0.2127,0.217,0.2207,0.2274,0.2322,0.2385,0.2362,0.2398,0.2446,0.2495,0.2536,0.2473,0.2544,0.2546,0.2447,0.2515,0.2294,0.233,0.2594,0.2597,0.2598,0,0.1983,0.1996,0.2018,0.2058,0.2071,0.2093,0.2162,0.2197,0.2296,0.2331,0.2408,0.2459,0.2557,0.2522,0.2633,0.2598,0.2613,0.2633,0.2636,0.2527,0.2461,0.232,0.2346,0.2622,0.262,0.2618,0.2617,0,0.1965,0.1995,0.2013,0.2023,0.2074,0.2103,0.2138,0.2222,0.2278,0.2394,0.2456,0.2559,0.2623,0.2685,0.2724,0.2699,0.2831,0.2792,0.2699,0.2689,0.2513,0.2482,0.287,0.287,0.2869,0.2869,0.2869,0,0.1949,0.1966,0.2009,0.2019,0.2056,0.21,0.2167,0.2215,0.2327,0.2404,0.2499,0.2573,0.2674,0.2755,0.2775,0.2782,0.2869,0.273,0.2715,0.252,0.2491,0.2752,0.2738,0.2872,0.2871,0.2871,0.287,0,0.1911,0.1947,0.1971,0.2026,0.205,0.2076,0.2174,0.2226,0.2331,0.2438,0.2493,0.2624,0.2705,0.2778,0.2871,0.2826,0.286,0.2832,0.2578,0.2531,0.2662,0.265,0.2743,0.274,0.2737,0.2735,0.2734,0,0.1894,0.1906,0.1957,0.1987,0.2012,0.2067,0.2112,0.2215,0.2272,0.2449,0.2496,0.263,0.2671,0.2758,0.2731,0.2741,0.2808,0.2519,0.2422,0.2681,0.2658,0.2649,0.264,0.2206,0.22,0.2195,0.2191,0,0.1872,0.1894,0.192,0.1965,0.2014,0.2037,0.2105,0.2145,0.2269,0.2353,0.2449,0.2512,0.2578,0.2476,0.2484,0.2457,0.2502,0.2415,0.2793,0.226,0.2177,0.2153,0.2162,0.2148,0.2152,0.2155,0.2158,0.2159,0.1871,0.1865,0.1918,0.1939,0.1997,0.199,0.1982,0.2056,0.2117,0.2183,0.2294,0.2291,0.2304,0.2189,0.2124,0.2074,0.2241,0.2128,0.2143,0.2163,0.2076,0.1992,0.191,0.1913,0.1916,0.1918,0.192,0,0.1834,0.1836,0.1883,0.189,0.1889,0.1945,0.1968,0.1922,0.1925,0.1996,0.2029,0.1849,0.1772,0.1805,0.1657,0.1636,0.1622,0.1561,0.1529,0.1573,0.1613,0.1497,0.1179,0.1176,0.1174,0.1172,0,0,0.1823,0.1828,0.1821,0.179,0.1789,0.1748,0.173,0.1691,0.1705,0.1634,0.1613,0.1702,0.1761,0.1458,0.14,0.1271,0.1415,0.1213,0.181,0.1819,0.1855,0.1943,0.1815,0,0,0,0,0]},{"header":{"parameterUnit":"m.s-1","parameterCategory":2,"la1":30.2991,"la2":30.254,"lo1":-89.0895,"lo2":-89.0444,"dy":0.0017,"dx":0.0017,"nx":28,"ny":28,"refTime":"2024-04-15T09:00:00:Z","depth":"2","parameterNumber":3,"parameterNumberName":"V-component_of_CURRENTS"},"data":[0,0,0,0,0,0,0,0,0,0,0,0,0,0,0,0,0,0,0,0,0,0,0,0,0,0,0,0,0,0,0,0,0,0,0,0,0,0,0,0,0,0,0,0,0,0,0,0,0,0,0,0,0,0,0,0,0,0,0.0118,0.0117,0,0.0087,0.0087,0.0087,0.0064,0.0064,0.0064,0.0064,0.0009,0.0008,0.0007,0,0,0,0,0,0,0,0,0,0,0,0,0,0.0123,0.0123,0.0118,0.0117,0.0117,0.0088,0.0087,0.0087,0.0064,0.0064,0.0064,0.0064,0.001,0.0008,0.0007,0,0,0,0,0,0,0,0,0,0,0,0,0,0.011,0.0123,0.0118,0.0102,0.0101,0.0088,0.0087,0.0087,0.0064,0.0064,0.0064,0.0063,0.001,0.0008,0.0007,0.0,0,0,0.0001,-0.0,0,0,0,0,0,0,0,0,0.011,0.0109,0.0105,0.0103,0.0101,0.0079,0.0069,0.0057,0.0064,0.0078,0.0064,0.0063,0.0031,0.0027,0.0022,-0.0002,-0.0004,0.0001,-0.0001,-0.0001,-0.0002,0,0,0,0,0,0,0,0.0111,0.011,0.0105,0.0104,0.0102,0.0086,0.0084,0.0067,0.0056,0.0077,0.0075,0.0072,0.003,0.0024,0.0021,-0.0005,0.0001,-0.0001,-0.0002,-0.0003,-0.0042,-0.0042,0,0,0,0,0,0,0.0118,0.0112,0.0106,0.0105,0.0105,0.0086,0.0084,0.0087,0.0056,0.0052,0.0072,0.0071,0.0028,0.0023,0.0019,0.0018,-0.0001,-0.0003,-0.0004,-0.0042,-0.0042,-0.0042,0,0,0,0,0,0,0.0118,0.0118,0.0108,0.0107,0.0105,0.0086,0.009,0.0086,0.0083,0.0053,0.0048,0.0073,0.0027,0.0021,0.0007,0.0015,-0.0004,-0.0006,-0.0042,-0.0042,-0.0042,0.001,0,0,0,0,0,0,0.0118,0.0118,0.012,0.0108,0.0105,0.0105,0.009,0.0086,0.0081,0.008,0.0052,0.0047,0.0027,0.001,0.0005,0.0012,-0.0007,-0.0042,-0.0042,-0.0042,0.0008,0.0012,0.0015,0,0,0,0,0,0.0119,0.0126,0.0121,0.012,0.0109,0.0105,0.0103,0.0088,0.0082,0.0084,0.0064,0.0048,0.0008,0.0009,0.0003,0.0009,-0.0042,-0.0042,-0.0042,0.0007,0.0011,0.0015,0,0,0,0,0,0,0.0126,0.0123,0.0118,0.0123,0.0116,0.0102,0.0101,0.0093,0.008,0.0077,0.005,0.0043,0.0032,0.0013,0.0015,-0.0002,-0.0021,-0.0022,0.0018,0.0022,0.0026,0.0041,-0.0009,0,0,0,0,0,0.013,0.0136,0.0128,0.0131,0.0131,0.0118,0.0114,0.0105,0.0092,0.0087,0.0068,0.0046,0.0029,0.002,-0.0,-0.0007,-0.0019,-0.0008,-0.0005,-0.0001,0.0007,-0.0001,0.0003,-0.0041,-0.0041,-0.0041,0,0,0.0132,0.0132,0.0134,0.0133,0.0128,0.0133,0.0115,0.0114,0.0117,0.0082,0.008,0.0057,0.0029,0.002,0.0013,0.0006,0.0004,-0.0001,0.0002,0.0008,-0.0,0.0004,0.0008,-0.0041,-0.0041,-0.0041,0,0,0.0145,0.0143,0.0154,0.0154,0.015,0.0144,0.0147,0.0136,0.0132,0.0124,0.0101,0.0086,0.0058,0.0043,0.0031,0.0041,0.0022,0.0033,0.0066,0.0059,0.0062,0.0066,0.0058,0.006,0.0036,0.0037,0.0037,0,0.0147,0.0163,0.0155,0.0167,0.0171,0.0153,0.0167,0.016,0.0145,0.0148,0.0128,0.0099,0.007,0.0069,0.0068,0.0051,0.0044,0.0055,0.0065,0.0068,0.007,0.0062,0.0063,0.0039,0.0039,0.0039,0.0038,0,0.017,0.0182,0.019,0.0202,0.0203,0.0212,0.0204,0.0205,0.0195,0.0187,0.0182,0.0145,0.0129,0.0116,0.0092,0.0099,0.0088,0.007,0.0059,0.0078,0.0067,0.0068,0.0043,0.0042,0.0041,0.004,0,0,0.0181,0.0203,0.0207,0.0224,0.0225,0.0233,0.0241,0.0249,0.0267,0.024,0.0261,0.0217,0.02,0.0184,0.0156,0.0146,0.0149,0.012,0.0118,0.0121,0.0138,0.0119,0.0118,0.0138,0.0138,0.0139,0.0124,0,0.0203,0.0239,0.0241,0.0274,0.0293,0.0286,0.0301,0.0304,0.0299,0.0313,0.028,0.0284,0.0226,0.0226,0.0204,0.017,0.0154,0.0155,0.0112,0.011,0.0098,0.012,0.0132,0.0119,0.0125,0.0125,0.0125,0,0.0228,0.0252,0.0291,0.0326,0.0335,0.0351,0.0381,0.0392,0.0401,0.0399,0.0389,0.0366,0.0349,0.0299,0.0243,0.0248,0.0195,0.0162,0.016,0.0127,0.0093,0.0099,0.0121,0.0127,0.0127,0.0127,0.0127,0,0.0251,0.0288,0.0325,0.0335,0.0368,0.039,0.0407,0.0421,0.0452,0.0463,0.0492,0.0448,0.0449,0.0378,0.0291,0.0273,0.0235,0.0199,0.0131,0.0129,0.0123,0.0119,0.0159,0.0159,0.0159,0.0159,0.0159,0,0.0278,0.0308,0.0344,0.0366,0.0421,0.0428,0.0485,0.0495,0.0533,0.0592,0.0544,0.058,0.0471,0.0432,0.0332,0.0241,0.0261,0.0145,0.0128,0.014,0.0138,0.0128,0.0125,0.0158,0.0159,0.0159,0.0159,0,0.0294,0.0318,0.0367,0.0414,0.0435,0.0474,0.0546,0.0592,0.0617,0.0697,0.0712,0.069,0.0637,0.0522,0.0416,0.0309,0.0216,0.0174,0.0195,0.0179,0.0103,0.0102,0.01,0.0099,0.0099,0.0098,0.0098,0,0.0305,0.0333,0.04,0.0445,0.0472,0.0535,0.0589,0.0631,0.069,0.0772,0.0821,0.0798,0.079,0.062,0.0435,0.0267,0.023,0.0154,0.0111,0.0116,0.0098,0.0099,0.0099,0.0123,0.0123,0.0123,0.0123,0,0.033,0.0354,0.04,0.0488,0.0557,0.0631,0.0713,0.0777,0.0848,0.0922,0.1007,0.1013,0.0854,0.0684,0.044,0.0316,0.0179,0.0145,0.0161,0.0132,0.0135,0.0119,0.0119,0.0121,0.0121,0.0121,0.0122,0.0122,0.0352,0.0388,0.0457,0.054,0.0625,0.0727,0.0803,0.0905,0.1021,0.1134,0.1125,0.1129,0.0926,0.0614,0.0406,0.0177,0.0185,0.0088,0.0089,0.0091,0.0093,0.0094,0.0073,0.0072,0.0072,0.0072,0.0072,0,0.0379,0.0426,0.0505,0.061,0.0703,0.0743,0.0887,0.097,0.1123,0.1202,0.126,0.1065,0.0875,0.0641,0.0314,0.0115,0.0093,0.0037,0.0058,0.0061,0.0063,0.0064,0.0036,0.0035,0.0034,0.0034,0,0,0.0399,0.0471,0.051,0.0659,0.0736,0.0869,0.0958,0.1096,0.1185,0.1261,0.1258,0.121,0.0943,0.069,0.0422,0.0236,0.019,0.0188,0.024,0.03,0.0305,0.0115,0.0122,0,0,0,0,0]}],[{"header":{"parameterUnit":"m.s-1","parameterCategory":2,"la1":30.2991,"la2":30.254,"lo1":-89.0895,"lo2":-89.0444,"dy":0.0017,"dx":0.0017,"nx":28,"ny":28,"refTime":"2024-04-15T09:00:00:Z","depth":"4","parameterNumber":2,"parameterNumberName":"U-component_of_CURRENTS"},"data":[0,0,0,0,0,0,0,0,0,0,0,0,0,0,0,0,0,0,0,0,0,0,0,0,0,0,0,0,0,0,0,0,0,0,0,0,0,0,0,0,0,0,0,0,0,0,0,0,0,0,0,0,0,0,0,0,0,0,0.1087,0.1088,0,0.1131,0.1132,0.1132,0.1159,0.116,0.116,0.116,0.1208,0.1209,0.121,0,0,0,0,0,0,0,0,0,0,0,0,0,0.1043,0.1043,0.1087,0.1088,0.1089,0.1131,0.1132,0.1132,0.1159,0.116,0.116,0.116,0.1207,0.1209,0.121,0,0,0,0,0,0,0,0,0,0,0,0,0,0.107,0.1043,0.1087,0.1108,0.1111,0.1131,0.1132,0.1132,0.1159,0.116,0.116,0.116,0.1207,0.1208,0.121,0.121,0,0,0.1214,0.1215,0,0,0,0,0,0,0,0,0.1069,0.1072,0.1105,0.1107,0.111,0.1142,0.1134,0.1159,0.1159,0.1139,0.116,0.1161,0.1187,0.119,0.1195,0.1213,0.1215,0.1215,0.1215,0.1216,0.1217,0,0,0,0,0,0,0,0.1067,0.107,0.1103,0.1105,0.1108,0.1122,0.1126,0.1139,0.1159,0.1141,0.1143,0.1151,0.1188,0.1193,0.1196,0.1215,0.1215,0.1216,0.1217,0.1217,0.1293,0.1294,0,0,0,0,0,0,0.1063,0.1068,0.1102,0.1104,0.1092,0.1122,0.1127,0.113,0.1159,0.1164,0.115,0.1152,0.1191,0.1194,0.1198,0.1258,0.1216,0.1218,0.1218,0.1292,0.1293,0.1294,0,0,0,0,0,0,0.1062,0.1066,0.11,0.1089,0.1094,0.1122,0.1126,0.113,0.1163,0.1166,0.1171,0.1182,0.1191,0.1196,0.1233,0.1257,0.1218,0.122,0.129,0.1292,0.1294,0.134,0,0,0,0,0,0,0.106,0.1065,0.1078,0.1088,0.1095,0.1129,0.1126,0.1131,0.1166,0.1169,0.1194,0.1197,0.1192,0.1231,0.1234,0.1259,0.1221,0.1289,0.1291,0.1293,0.1337,0.1343,0.1348,0,0,0,0,0,0.1059,0.1067,0.1078,0.1083,0.1108,0.113,0.1135,0.1155,0.1168,0.1186,0.1205,0.1198,0.1246,0.1233,0.1237,0.1262,0.1288,0.1291,0.1293,0.1335,0.1342,0.1348,0,0,0,0,0,0,0.1055,0.1071,0.1083,0.1097,0.1122,0.1135,0.1157,0.1172,0.1202,0.1212,0.1215,0.122,0.1259,0.1256,0.1242,0.129,0.1265,0.1269,0.1295,0.1302,0.1308,0.1312,0.1222,0,0,0,0,0,0.106,0.1074,0.1093,0.111,0.1123,0.1148,0.1165,0.1181,0.1202,0.1217,0.1235,0.1252,0.1268,0.1283,0.1294,0.1325,0.1331,0.1343,0.1348,0.1353,0.1359,0.1398,0.1408,0.1303,0.1302,0.1302,0,0,0.1064,0.1077,0.1085,0.1111,0.1133,0.1155,0.116,0.1193,0.1215,0.1217,0.1261,0.1276,0.1281,0.1312,0.1329,0.1316,0.1386,0.1356,0.136,0.1364,0.1402,0.1412,0.1422,0.1304,0.1304,0.1304,0,0,0.1071,0.1092,0.1105,0.1128,0.1165,0.1179,0.1196,0.1228,0.1248,0.1289,0.1293,0.1325,0.1355,0.136,0.1365,0.141,0.1414,0.142,0.1454,0.1492,0.1501,0.1509,0.1526,0.1535,0.1423,0.1423,0.1423,0,0.108,0.1094,0.1115,0.1137,0.1158,0.1193,0.1215,0.124,0.1282,0.1299,0.131,0.1365,0.1373,0.1403,0.1423,0.1422,0.1444,0.1427,0.1499,0.1508,0.1515,0.153,0.154,0.1425,0.1425,0.1425,0.1425,0,0.109,0.1115,0.1128,0.1164,0.119,0.1219,0.125,0.1284,0.1318,0.134,0.1393,0.1412,0.1444,0.1454,0.1456,0.1512,0.1511,0.1502,0.1482,0.1529,0.1542,0.1551,0.1429,0.1428,0.1427,0.1427,0,0,0.1075,0.1125,0.1133,0.1153,0.1208,0.1225,0.1268,0.1307,0.134,0.1389,0.1432,0.147,0.1497,0.1506,0.1518,0.1555,0.1625,0.1564,0.1565,0.158,0.1712,0.1593,0.1591,0.1644,0.1646,0.1647,0.1698,0,0.1083,0.1117,0.1143,0.1184,0.1205,0.1248,0.1283,0.1326,0.1371,0.1422,0.1457,0.1508,0.1511,0.1546,0.1584,0.1619,0.1654,0.1612,0.1665,0.1666,0.1555,0.1599,0.1654,0.1704,0.1707,0.1708,0.1709,0,0.1079,0.1106,0.1142,0.119,0.1204,0.1239,0.1299,0.1337,0.1409,0.1449,0.1509,0.1546,0.1613,0.1612,0.1694,0.1677,0.1705,0.1724,0.1726,0.1605,0.1564,0.165,0.1726,0.1724,0.1723,0.1722,0.1721,0,0.1044,0.1099,0.1127,0.1147,0.1211,0.1241,0.1283,0.1352,0.1386,0.1485,0.1531,0.1602,0.1659,0.1708,0.1754,0.1744,0.1837,0.1817,0.1728,0.172,0.1791,0.1782,0.1877,0.1877,0.1877,0.1876,0.1876,0,0.1025,0.105,0.112,0.1136,0.1179,0.1232,0.1287,0.134,0.1419,0.1465,0.1555,0.1602,0.1697,0.1753,0.1779,0.1778,0.1856,0.1741,0.1729,0.1808,0.18,0.1797,0.1787,0.1878,0.1878,0.1878,0.1877,0,0.0976,0.1024,0.1058,0.1132,0.1164,0.1196,0.1286,0.1317,0.1413,0.148,0.152,0.163,0.1707,0.1767,0.1847,0.1798,0.1813,0.1793,0.1873,0.1864,0.1663,0.1655,0.1691,0.1687,0.1684,0.1682,0.1679,0,0.0951,0.0966,0.1046,0.1073,0.1115,0.1178,0.1218,0.1311,0.134,0.1477,0.1494,0.1613,0.1675,0.1686,0.1761,0.1786,0.177,0.1754,0.1706,0.1661,0.1647,0.1644,0.164,0.1674,0.1674,0.1673,0.1672,0,0.09,0.0937,0.0962,0.1016,0.1066,0.1105,0.1169,0.1179,0.1282,0.139,0.1438,0.1485,0.1565,0.1617,0.1652,0.1666,0.1748,0.1721,0.1727,0.1682,0.1641,0.163,0.163,0.1661,0.1663,0.1664,0.1664,0,0.0863,0.0864,0.0902,0.094,0.099,0.0999,0.1051,0.1089,0.1133,0.1278,0.1296,0.143,0.1545,0.1556,0.1587,0.1592,0.1567,0.1504,0.1521,0.1533,0.1458,0.1383,0.132,0,0,0,0,0,0.082,0.0806,0.0825,0.0846,0.0884,0.0917,0.0993,0.1044,0.1152,0.115,0.1214,0.1283,0.1346,0.1415,0.139,0.1513,0.1566,0.1475,0.1499,0.1601,0.1614,0.154,0,0,0,0,0,0,0.0787,0.0796,0.0789,0.0749,0.075,0.0781,0.0825,0.091,0.0907,0.1038,0.1083,0.1192,0.1277,0.1349,0.1363,0.1382,0.1366,0.156,0.1556,0.1594,0.1605,0.1616,0.1544,0,0,0,0,0]},{"header":{"parameterUnit":"m.s-1","parameterCategory":2,"la1":30.2991,"la2":30.254,"lo1":-89.0895,"lo2":-89.0444,"dy":0.0017,"dx":0.0017,"nx":28,"ny":28,"refTime":"2024-04-15T09:00:00:Z","depth":"4","parameterNumber":3,"parameterNumberName":"V-component_of_CURRENTS"},"data":[0,0,0,0,0,0,0,0,0,0,0,0,0,0,0,0,0,0,0,0,0,0,0,0,0,0,0,0,0,0,0,0,0,0,0,0,0,0,0,0,0,0,0,0,0,0,0,0,0,0,0,0,0,0,0,0,0,0,0.0119,0.0119,0,0.0097,0.0097,0.0097,0.0085,0.0085,0.0085,0.0085,0.0049,0.0048,0.0047,0,0,0,0,0,0,0,0,0,0,0,0,0,0.0122,0.0122,0.0119,0.0119,0.0118,0.0097,0.0097,0.0096,0.0085,0.0085,0.0085,0.0085,0.0049,0.0048,0.0047,0,0,0,0,0,0,0,0,0,0,0,0,0,0.0112,0.0122,0.0119,0.011,0.0109,0.0097,0.0097,0.0096,0.0085,0.0085,0.0085,0.0085,0.005,0.0048,0.0047,0.0038,0,0,0.0042,0.0042,0,0,0,0,0,0,0,0,0.0113,0.0112,0.0112,0.0111,0.011,0.0094,0.0084,0.0076,0.0085,0.0094,0.0085,0.0085,0.0063,0.006,0.0056,0.0036,0.0035,0.0042,0.0041,0.0041,0.004,0,0,0,0,0,0,0,0.0113,0.0113,0.011,0.0112,0.011,0.0097,0.0096,0.0083,0.0079,0.0094,0.0093,0.0091,0.0062,0.0058,0.0055,0.0034,0.0042,0.0041,0.004,0.0039,0.0021,0.0021,0,0,0,0,0,0,0.0118,0.0114,0.0111,0.011,0.0111,0.0098,0.0096,0.0099,0.0079,0.0076,0.0091,0.009,0.006,0.0057,0.0054,0.0061,0.0041,0.0039,0.0038,0.002,0.0021,0.0021,0,0,0,0,0,0,0.0118,0.0118,0.0112,0.0111,0.0109,0.0098,0.0101,0.0099,0.0096,0.0077,0.0074,0.0091,0.006,0.0056,0.0048,0.0059,0.0039,0.0037,0.002,0.0021,0.0021,0.0064,0,0,0,0,0,0,0.0118,0.0118,0.0121,0.0111,0.0109,0.0109,0.0101,0.0098,0.0095,0.0094,0.0076,0.0072,0.006,0.005,0.0046,0.0057,0.0036,0.002,0.002,0.0021,0.0062,0.0066,0.0069,0,0,0,0,0,0.0119,0.0124,0.0121,0.0121,0.0114,0.0109,0.0107,0.0099,0.0095,0.0096,0.0086,0.0073,0.0052,0.0049,0.0045,0.0055,0.0019,0.002,0.0021,0.006,0.0065,0.0069,0,0,0,0,0,0,0.0124,0.0123,0.012,0.0124,0.0119,0.0108,0.0107,0.0101,0.0094,0.0093,0.0075,0.0071,0.0069,0.0054,0.0052,0.0051,0.0034,0.0034,0.0066,0.007,0.0073,0.0086,0.0035,0,0,0,0,0,0.0127,0.0133,0.0126,0.0129,0.0128,0.0118,0.0115,0.011,0.0102,0.0099,0.0086,0.0075,0.0068,0.0063,0.0052,0.005,0.0033,0.0054,0.0058,0.0061,0.0068,0.0054,0.0057,0.0024,0.0024,0.0024,0,0,0.0129,0.013,0.0132,0.0131,0.0126,0.013,0.0116,0.0115,0.0121,0.0096,0.0098,0.0085,0.007,0.007,0.0068,0.006,0.006,0.0062,0.0065,0.007,0.0056,0.0059,0.0062,0.0025,0.0025,0.0025,0,0,0.0138,0.0137,0.0145,0.0145,0.0142,0.0139,0.014,0.0132,0.0132,0.013,0.0118,0.0115,0.0097,0.0096,0.0092,0.0108,0.0079,0.01,0.0129,0.0115,0.0118,0.012,0.0097,0.0097,0.0102,0.0102,0.0102,0,0.0139,0.0152,0.0146,0.0154,0.0159,0.0146,0.0157,0.0154,0.0145,0.0152,0.0137,0.0127,0.0114,0.0124,0.013,0.0118,0.0097,0.0114,0.012,0.0122,0.0124,0.0099,0.0099,0.0105,0.0104,0.0104,0.0104,0,0.0154,0.0166,0.017,0.0181,0.0184,0.0191,0.0189,0.0193,0.0189,0.0188,0.0193,0.0174,0.0171,0.0165,0.0152,0.0161,0.0138,0.0126,0.0111,0.013,0.0103,0.0101,0.0108,0.0107,0.0106,0.0106,0,0,0.0158,0.0178,0.0181,0.0197,0.0202,0.0209,0.0222,0.0236,0.0253,0.0239,0.0257,0.0245,0.0233,0.0228,0.021,0.0199,0.0189,0.0168,0.0166,0.0148,0.0148,0.0132,0.0128,0.0174,0.0174,0.0174,0.0122,0,0.0173,0.0201,0.0207,0.0236,0.0252,0.0254,0.0272,0.0283,0.0284,0.0296,0.0283,0.0289,0.0257,0.0258,0.0241,0.0204,0.0188,0.0204,0.013,0.0128,0.0114,0.0127,0.0175,0.0121,0.012,0.012,0.012,0,0.0187,0.0208,0.0241,0.0279,0.0286,0.0303,0.0337,0.0352,0.0365,0.0367,0.0365,0.0347,0.0337,0.0304,0.0248,0.0255,0.0207,0.0173,0.017,0.0141,0.011,0.0099,0.0116,0.0117,0.0117,0.0117,0.0117,0,0.0199,0.0234,0.0266,0.0276,0.0312,0.0334,0.0355,0.0376,0.0403,0.0413,0.0427,0.04,0.0393,0.0332,0.0254,0.025,0.0182,0.0168,0.0107,0.0105,0.0115,0.0113,0.0129,0.0129,0.013,0.013,0.013,0,0.0215,0.0241,0.0277,0.0295,0.0344,0.0359,0.0412,0.0426,0.0457,0.0495,0.0465,0.0476,0.0399,0.0349,0.027,0.0181,0.0191,0.0116,0.0095,0.0133,0.0134,0.0113,0.0112,0.0128,0.0128,0.0129,0.0129,0,0.0219,0.0242,0.0283,0.033,0.0351,0.0385,0.0453,0.0492,0.0511,0.0556,0.0563,0.0536,0.0471,0.038,0.0281,0.0209,0.0123,0.0087,0.0129,0.011,0.0049,0.005,0.0022,0.0021,0.002,0.0019,0.0019,0,0.0223,0.0244,0.0306,0.034,0.0365,0.0424,0.0473,0.0516,0.0557,0.0591,0.0612,0.0569,0.0535,0.0383,0.028,0.0129,0.0105,0.0052,0.0057,0.0058,0.004,0.0043,0.0045,0.0018,0.0017,0.0017,0.0017,0,0.023,0.0252,0.0289,0.0361,0.0417,0.0484,0.055,0.0584,0.0637,0.0653,0.0655,0.0585,0.0511,0.0389,0.027,0.0161,0.0084,0.0044,0.0045,0.0049,0.0053,0.0036,0.004,0.0014,0.0015,0.0015,0.0015,0,0.0237,0.0261,0.0315,0.0381,0.0452,0.0524,0.0561,0.0614,0.0656,0.0687,0.0684,0.0607,0.0565,0.0405,0.0294,0.0186,0.0159,0.0115,0.0112,0.0113,0.0153,0.0171,0.0156,0,0,0,0,0,0.0242,0.0276,0.0334,0.0411,0.0483,0.0529,0.0607,0.0641,0.0688,0.0694,0.0692,0.0623,0.0475,0.0413,0.0303,0.0271,0.0131,0.0136,0.0078,-0.0,0.0003,0.0032,0,0,0,0,0,0,0.0246,0.0298,0.0331,0.0426,0.0482,0.0569,0.0621,0.0655,0.0658,0.0681,0.0605,0.058,0.0436,0.0536,0.0295,0.0264,0.0208,0.0072,0.0069,-0.0002,0.0001,0.0003,0.0034,0,0,0,0,0]}]]